Location: Krakow
(50.0830°N, 19.9170°E)
Time: 09:45:00
(UTC+01:00)

Transit 2A - Pass Details

Date: 16 February 2023
Orbit: 591 x 964 km, 66.7° (Epoch: 21 March)

Event Time Altitude Azimuth Distance (km) Brightness Sun altitude
Rises 20:18:29 0° 322° (NW) 3,457 10.2 -32.1°
Reaches altitude 10° 20:21:12 10° 332° (NNW) 2,569 9.2 -32.5°
Enters shadow 20:24:51 28° 5° (N) 1,675 7.8 -33.0°
Maximum altitude 20:26:34 32° 35° (NE) 1,550 - -33.3°
Drops below altitude 10° 20:32:11 10° 97° (E) 2,692 - -34.1°
Sets 20:35:05 0° 107° (ESE) 3,646 - -34.5°
